Location: Casilda
(33.0440°S, 61.1680°W)
Time: 17:38:52
(UTC-03:00)

ISS - Pass Details

Date: 24 January 2022
Orbit: 413 x 422 km, 51.6° (Epoch: 19 January)

Event Time Altitude Azimuth Distance (km) Brightness Sun altitude
Exits shadow 04:07:16 24° 74° (ENE) 921 -1.8 -23.8°
Drops below altitude 10° 04:09:28 10° 110° (ESE) 1,531 0.0 -23.5°
Sets 04:11:48 0° 122° (ESE) 2,405 1.4 -23.1°
